JH4GLG-13 Weather Reports


Display with metric or nautical units.
time (UTC)temp
F
wind
direction
speed
MPH
gust
MPH
rain 1hr
in
rain 24hr
in
rain mn
in
humidity
%
barometer
mb
20260505041126 73 0 0.0 0.0 0.00 0.00 0.00 43 1020.1
20260505035627 72 0 0.0 0.0 0.00 0.00 0.00 43 1020.2
20260505034125 70 0 0.0 0.0 0.00 0.00 0.00 44 1020.4
20260505032626 70 0 0.0 0.0 0.00 0.00 0.00 45 1020.5
20260505031125 70 0 0.0 0.0 0.00 0.00 0.00 45 1020.7
20260505025626 70 0 0.0 0.0 0.00 0.00 0.00 47 1020.7
20260505024125 73 0 0.0 0.0 0.00 0.00 0.00 46 1021.0
20260505022626 71 0 0.0 0.0 0.00 0.00 0.00 48 1021.2
20260505021125 70 0 0.0 0.0 0.00 0.00 0.00 49 1021.2
20260505015707 72 0 0.0 0.0 0.00 0.00 0.00 49 1021.4
20260505015625 72 0 0.0 0.0 0.00 0.00 0.00 49 1021.4
20260505014124 73 0 0.0 0.0 0.00 0.00 0.00 48 1021.4
20260505012626 70 0 0.0 0.0 0.00 0.00 0.00 51 1021.4
20260505011125 70 0 0.0 0.0 0.00 0.00 0.00 49 1021.5
20260505005626 73 0 0.0 0.0 0.00 0.00 0.00 47 1021.6
20260505004124 69 0 0.0 0.0 0.00 0.00 0.00 51 1021.6
20260505002629 66 0 0.0 0.0 0.00 0.00 0.00 51 1021.5
20260505002625 66 0 0.0 0.0 0.00 0.00 0.00 51 1021.6
20260505001124 67 0 0.0 0.0 0.00 0.00 0.00 57 1021.6
20260504235628 64 0 0.0 0.0 0.00 0.00 0.00 57 1021.6
20260504235625 64 0 0.0 0.0 0.00 0.00 0.00 57 1021.5
20260504234123 65 0 0.0 0.0 0.00 0.00 0.00 61 1021.5
20260504232628 63 0 0.0 0.0 0.00 0.00 0.00 62 1021.5
20260504232624 63 0 0.0 0.0 0.00 0.00 0.00 63 1021.6
20260504231123 60 0 0.0 0.0 0.00 0.00 0.00 69 1021.7
20260504225625 0 0 0.0 0.0 0.00 0.00 0.00 1021.6
20260504224123 60 0 0.0 0.0 0.00 0.00 0.00 71 1021.5
20260504222624 58 0 0.0 0.0 0.00 0.00 0.00 75 1021.6
20260504221123 59 0 0.0 0.0 0.00 0.00 0.00 75 1021.4
20260504215623 57 0 0.0 0.0 0.00 0.00 0.00 79 1021.4
20260504214123 55 0 0.0 0.0 0.00 0.00 0.00 83 1021.4
20260504212624 53 0 0.0 0.0 0.00 0.00 0.00 86 1021.4
20260504211122 52 0 0.0 0.0 0.00 0.00 0.00 90 1021.3
20260504205625 0 0 0.0 0.0 0.00 0.00 0.00 1021.0
20260504204122 50 0 0.0 0.0 0.00 0.00 0.00 91 1020.8
20260504202624 50 0 0.0 0.0 0.00 0.00 0.00 91 1020.6
20260504201122 50 0 0.0 0.0 0.00 0.00 0.00 91 1020.4
20260504195623 50 0 0.0 0.0 0.00 0.00 0.00 91 1020.2
20260504194122 51 0 0.0 0.0 0.00 0.00 0.00 91 1020.0
20260504192623 51 0 0.0 0.0 0.00 0.00 0.00 91 1019.8
20260504191122 51 0 0.0 0.0 0.00 0.00 0.00 90 1019.7
20260504185622 51 0 0.0 0.0 0.00 0.00 0.00 90 1019.5
20260504184121 51 0 0.0 0.0 0.00 0.00 0.00 89 1019.3
20260504182623 52 0 0.0 0.0 0.00 0.00 0.00 89 1019.3
20260504181121 52 0 0.0 0.0 0.00 0.00 0.00 89 1019.2
20260504175624 52 0 0.0 0.0 0.00 0.00 0.00 88 1019.0
20260504174121 52 0 0.0 0.0 0.00 0.00 0.00 88 1019.0
20260504172622 52 0 0.0 0.0 0.00 0.00 0.00 87 1018.8
20260504171121 53 0 0.0 0.0 0.00 0.00 0.00 87 1018.7
20260504151119 54 0 0.0 0.0 0.00 0.00 0.00 84 1018.5
20260504141119 55 0 0.0 0.0 0.00 0.00 0.00 82 1018.4
20260504081117 63 0 0.0 0.0 0.00 0.00 0.00 59 1012.9